Weather History for Frankfort, MI

Change the Weather History Date:

Thursday, June 20, 2013

  Actual Average (KTVC) Record (KTVC)
Temperature  
Mean Temperature 60 °F 66 °F  
Max Temperature 76 °F 77 °F 98 °F (1933)
Min Temperature 45 °F 54 °F 36 °F (1961)
Degree Days  
Heating Degree Days 4 3  
Month to date heating degree days 93  
Since 1 June heating degree days 93  
Since 1 July heating degree days 7529  
Cooling Degree Days 0 3  
Month to date cooling degree days 40  
Year to date cooling degree days 60  
Since 1 June cooling degree days 40  
Growing Degree Days 10 (Base 50)    
Moisture  
Dew Point 46 °F    
Average Humidity 59    
Maximum Humidity 90    
Minimum Humidity 28    
Precipitation  
Precipitation 0.00 in 0.11 in 1.52 in (1979)
Month to date precipitation 1.99  
Year to date precipitation 13.54  
Sea Level Pressure  
Sea Level Pressure 30.15 in    
Wind  
Wind Speed 2 mph (SW)    
Max Wind Speed 12 mph    
Max Gust Speed 16 mph    
Visibility 10 miles    
Events      
T = Trace of Precipitation, MM = Missing Value Source: NWS Daily Summary

Daily Weather History Graph

Daily Weather History Graph

Search for Another Location

Airport:

Trip Planner

Search our weather history database for the weather conditions in past years. The results will help you decide how hot, cold, wet, or windy it might be!

Date:

Astronomy

Jun. 20, 2013 Rise Set
Actual Time 5:59 AM EDT 9:33 PM EDT
Civil Twilight 5:22 AM EDT 10:10 PM EDT
Nautical Twilight 4:33 AM EDT 10:59 PM EDT
Astronomical Twilight 3:29 AM EDT 12:03 AM EDT
Moon 6:30 PM EDT (6/20) 3:31 AM EDT (6/20)
Length of Visible Light 16h 48m
Length of Day
15h 34m
Waxing Gibbous, 89% of the Moon is Illuminated
Jun 20
Waxing Gibbous
Jun 23
Full
Jun 30
Last Quarter
Jul 8
New
Jul 15
First Quarter

Hourly Weather History & Observations

Time (EDT) Temp. Dew Point Humidity Pressure Visibility Wind Dir Wind Speed Gust Speed Precip Events Conditions
12:16 AM 47.1 °F 42.4 °F 84% 30.13 in 10.0 mi Calm Calm - N/A   Clear
12:36 AM 47.1 °F 42.4 °F 84% 30.13 in 10.0 mi Calm Calm - N/A   Clear
12:57 AM 46.9 °F 41.5 °F 81% 30.13 in 10.0 mi Calm Calm - N/A   Clear
1:12 AM 46.4 °F 41.2 °F 82% 30.12 in 10.0 mi Calm Calm - N/A   Clear
1:32 AM 45.5 °F 41.9 °F 87% 30.12 in 10.0 mi Calm Calm - N/A   Clear
1:52 AM 46.4 °F 42.1 °F 85% 30.12 in 10.0 mi Calm Calm - N/A   Clear
2:12 AM 46.2 °F 41.5 °F 84% 30.12 in 10.0 mi Calm Calm - N/A   Clear
2:32 AM 45.7 °F 41.4 °F 85% 30.12 in 10.0 mi Calm Calm - N/A   Clear
2:52 AM 45.9 °F 41.7 °F 85% 30.12 in 10.0 mi Calm Calm - N/A   Clear
3:12 AM 46.4 °F 41.9 °F 84% 30.12 in 10.0 mi Calm Calm - N/A   Clear
3:32 AM 46.6 °F 42.3 °F 85% 30.12 in 10.0 mi Calm Calm - N/A   Clear
3:53 AM 46.2 °F 42.3 °F 86% 30.13 in 10.0 mi Calm Calm - N/A   Clear
4:13 AM 46.2 °F 42.3 °F 86% 30.13 in 10.0 mi Calm Calm - N/A   Clear
4:33 AM 45.7 °F 42.8 °F 90% 30.14 in 10.0 mi Calm Calm - N/A   Clear
4:53 AM 45.0 °F 42.3 °F 90% 30.14 in 10.0 mi Calm Calm - N/A   Clear
5:13 AM 45.7 °F 43.0 °F 90% 30.14 in 10.0 mi Calm Calm - N/A   Clear
5:33 AM 45.5 °F 42.3 °F 88% 30.14 in 10.0 mi Calm Calm - N/A   Clear
5:53 AM 45.5 °F 42.6 °F 90% 30.15 in 10.0 mi Calm Calm - N/A   Clear
6:13 AM 45.9 °F 42.6 °F 88% 30.15 in 10.0 mi Calm Calm - N/A   Clear
6:33 AM 46.2 °F 42.8 °F 88% 30.15 in 10.0 mi Calm Calm - N/A   Clear
6:54 AM 46.9 °F 43.5 °F 88% 30.15 in 10.0 mi Calm Calm - N/A   Clear
7:14 AM 49.3 °F 45.7 °F 87% 30.16 in 10.0 mi Calm Calm - N/A   Clear
7:34 AM 52.3 °F 48.0 °F 85% 30.16 in 10.0 mi Calm Calm - N/A   Clear
7:54 AM 57.4 °F 51.3 °F 80% 30.17 in 10.0 mi Calm Calm - N/A   Clear
8:14 AM 62.2 °F 46.9 °F 57% 30.16 in 10.0 mi Calm Calm - N/A   Clear
8:34 AM 64.2 °F 44.6 °F 49% 30.16 in 10.0 mi South 3.5 mph - N/A   Clear
8:54 AM 65.7 °F 44.8 °F 47% 30.17 in 10.0 mi Calm Calm - N/A   Clear
9:14 AM 66.7 °F 41.9 °F 40% 30.17 in 10.0 mi SSW 4.6 mph - N/A   Clear
9:34 AM 67.6 °F 40.3 °F 37% 30.17 in 10.0 mi SW 5.8 mph - N/A   Clear
9:54 AM 68.7 °F 39.0 °F 34% 30.17 in 10.0 mi SW 5.8 mph - N/A   Clear
10:15 AM 69.8 °F 34.9 °F 28% 30.17 in 10.0 mi SSW 4.6 mph - N/A   Clear
10:35 AM 71.4 °F 39.2 °F 31% 30.17 in 10.0 mi WSW 8.1 mph - N/A   Clear
10:55 AM 70.5 °F 37.0 °F 29% 30.18 in 10.0 mi SW 9.2 mph - N/A   Clear
11:15 AM 71.1 °F 38.7 °F 31% 30.18 in 10.0 mi SSW 8.1 mph - N/A   Clear
11:35 AM 72.5 °F 38.7 °F 29% 30.18 in 10.0 mi South 8.1 mph - N/A   Clear
11:55 AM 73.4 °F 41.5 °F 32% 30.18 in 10.0 mi SW 5.8 mph - N/A   Clear
12:15 PM 73.9 °F 43.3 °F 33% 30.18 in 10.0 mi SW 9.2 mph 16.1 mph N/A   Clear
12:35 PM 74.8 °F 46.4 °F 36% 30.17 in 10.0 mi SW 9.2 mph - N/A   Clear
12:55 PM 73.8 °F 45.0 °F 36% 30.18 in 10.0 mi West 8.1 mph - N/A   Clear
1:16 PM 72.7 °F 42.4 °F 34% 30.18 in 10.0 mi WSW 8.1 mph - N/A   Clear
1:36 PM 73.9 °F 41.0 °F 30% 30.18 in 10.0 mi SW 6.9 mph - N/A   Clear
1:56 PM 74.8 °F 44.4 °F 34% 30.17 in 10.0 mi SW 5.8 mph - N/A   Clear
2:16 PM 76.1 °F 47.3 °F 36% 30.17 in 10.0 mi SW 6.9 mph - N/A   Clear
2:36 PM 75.9 °F 45.9 °F 34% 30.17 in 10.0 mi SW 4.6 mph - N/A   Clear
2:56 PM 75.7 °F 47.8 °F 37% 30.16 in 10.0 mi SW 8.1 mph - N/A   Clear
3:16 PM 76.6 °F 48.7 °F 37% 30.16 in 10.0 mi West 10.4 mph - N/A   Clear
3:36 PM 73.8 °F 45.3 °F 36% 30.16 in 10.0 mi WSW 9.2 mph - N/A   Clear
3:56 PM 73.4 °F 46.6 °F 38% 30.16 in 10.0 mi WSW 5.8 mph - N/A   Clear
4:17 PM 75.0 °F 48.7 °F 39% 30.15 in 10.0 mi SW 11.5 mph 16.1 mph N/A   Clear
4:37 PM 75.7 °F 50.9 °F 42% 30.14 in 10.0 mi WSW 6.9 mph - N/A   Clear
4:52 PM 75.9 °F 51.3 °F 42% 30.14 in 10.0 mi SW 6.9 mph - N/A   Clear
5:12 PM 73.2 °F 50.9 °F 45% 30.14 in 10.0 mi SW 3.5 mph - N/A   Clear
5:32 PM 74.5 °F 51.8 °F 45% 30.14 in 10.0 mi WSW 4.6 mph - N/A   Clear
5:52 PM 73.4 °F 52.0 °F 47% 30.14 in 10.0 mi WSW 4.6 mph - N/A   Clear
6:12 PM 75.0 °F 52.7 °F 46% 30.13 in 10.0 mi WSW 8.1 mph - N/A   Clear
6:32 PM 72.5 °F 52.3 °F 49% 30.13 in 10.0 mi West 8.1 mph - N/A   Clear
6:52 PM 72.0 °F 52.3 °F 50% 30.12 in 10.0 mi SW 3.5 mph - N/A   Clear
7:12 PM 71.8 °F 52.2 °F 50% 30.12 in 10.0 mi SSW 3.5 mph - N/A   Clear
7:33 PM 73.0 °F 53.6 °F 50% 30.12 in 10.0 mi Calm Calm - N/A   Clear
7:53 PM 70.9 °F 52.3 °F 52% 30.12 in 10.0 mi SW 3.5 mph - N/A   Clear
8:13 PM 70.0 °F 52.3 °F 53% 30.13 in 10.0 mi Calm Calm - N/A   Clear
8:33 PM 68.5 °F 52.0 °F 55% 30.12 in 10.0 mi WSW 3.5 mph - N/A   Clear
8:53 PM 68.4 °F 51.4 °F 55% 30.13 in 10.0 mi Calm Calm - N/A   Clear
9:13 PM 68.2 °F 51.8 °F 56% 30.13 in 10.0 mi Calm Calm - N/A   Clear
9:33 PM 68.4 °F 51.4 °F 55% 30.13 in 10.0 mi Calm Calm - N/A   Clear
9:53 PM 68.9 °F 51.3 °F 53% 30.13 in 10.0 mi Calm Calm - N/A   Clear
10:13 PM 64.6 °F 53.1 °F 66% 30.14 in 10.0 mi Calm Calm - N/A   Clear
10:34 PM 60.8 °F 52.7 °F 75% 30.14 in 10.0 mi Calm Calm - N/A   Clear
10:54 PM 61.0 °F 53.1 °F 75% 30.15 in 10.0 mi Calm Calm - N/A   Clear
11:14 PM 60.4 °F 53.2 °F 77% 30.14 in 10.0 mi Calm Calm - N/A   Clear
11:34 PM 59.0 °F 53.2 °F 81% 30.14 in 10.0 mi Calm Calm - N/A   Clear
11:54 PM 59.5 °F 53.1 °F 79% 30.14 in 10.0 mi Calm Calm - N/A   Clear